Location: Pasadena, ca
(34.1243°N, 118.1037°W)
Time: 22:28:48
(UTC-08:00)

N. Korean satellite - Pass Details

Date: 18 November 2017
Orbit: 460 x 515 km, 97.2° (Epoch: 18 November)

Event Time Altitude Azimuth Distance (km) Brightness Sun altitude
Rises 17:19:21 0° 142° (SE) 2,477 10.0 -7.1°
Reaches altitude 10° 17:21:37 10° 128° (SE) 1,612 8.9 -7.6°
Maximum altitude 17:24:28 24° 73° (ENE) 1,003 7.6 -8.1°
Drops below altitude 10° 17:27:21 10° 17° (NNE) 1,640 8.9 -8.7°
Sets 17:29:41 0° 4° (N) 2,532 10.0 -9.2°
